Previsão horária em Cefalonia

Hoje, 29 Julho, Quinta-feira

Tempo Temperatura Precipitação Vento Pressão Humidade
00:00 +30°C° 0 mm 2 m/s 741 mmHg 41%
01:00 +30°C° 0 mm 2 m/s 741 mmHg 42%
02:00 +29°C° 0 mm 1 m/s 740 mmHg 43%
03:00 +29°C° 0 mm 1 m/s 740 mmHg 44%
04:00 +28°C° 0 mm 1 m/s 740 mmHg 44%
05:00 +30°C° 0 mm 1 m/s 740 mmHg 41%
06:00 +32°C° 0 mm 1 m/s 740 mmHg 37%
07:00 +35°C° 0 mm 2 m/s 741 mmHg 34%
08:00 +36°C° 0 mm 2 m/s 741 mmHg 31%
09:00 +37°C° 0 mm 2 m/s 741 mmHg 27%
10:00 +38°C° 0 mm 3 m/s 741 mmHg 24%
11:00 +38°C° 0 mm 3 m/s 741 mmHg 25%
12:00 +38°C° 0 mm 4 m/s 740 mmHg 26%
13:00 +39°C° 0 mm 5 m/s 740 mmHg 27%
14:00 +37°C° 0 mm 5 m/s 740 mmHg 31%
15:00 +36°C° 0 mm 6 m/s 740 mmHg 35%
16:00 +34°C° 0 mm 6 m/s 739 mmHg 38%
17:00 +33°C° 0 mm 5 m/s 739 mmHg 38%
18:00 +32°C° 0 mm 5 m/s 739 mmHg 38%
19:00 +30°C° 0 mm 4 m/s 739 mmHg 38%
20:00 +29°C° 0 mm 4 m/s 739 mmHg 43%
21:00 +29°C° 0 mm 3 m/s 739 mmHg 47%
22:00 +28°C° 0 mm 3 m/s 740 mmHg 52%
23:00 +28°C° 0 mm 3 m/s 739 mmHg 50%

Amanhã, 30 Julho, Sexta-feira

Tempo Temperatura Precipitação Vento Pressão Humidade
00:00 +28°C° 0 mm 3 m/s 739 mmHg 48%
01:00 +28°C° 0 mm 3 m/s 739 mmHg 46%
02:00 +28°C° 0 mm 3 m/s 739 mmHg 46%
03:00 +28°C° 0 mm 2 m/s 739 mmHg 46%
04:00 +27°C° 0 mm 2 m/s 739 mmHg 46%
05:00 +30°C° 0 mm 2 m/s 739 mmHg 40%
06:00 +32°C° 0 mm 1 m/s 739 mmHg 34%
07:00 +34°C° 0 mm 1 m/s 739 mmHg 28%
08:00 +35°C° 0 mm 1 m/s 739 mmHg 26%
09:00 +37°C° 0 mm 2 m/s 739 mmHg 25%
10:00 +38°C° 0 mm 2 m/s 739 mmHg 23%
11:00 +38°C° 0 mm 3 m/s 739 mmHg 24%
12:00 +38°C° 0 mm 4 m/s 739 mmHg 25%
13:00 +37°C° 0 mm 5 m/s 739 mmHg 26%
14:00 +37°C° 0 mm 5 m/s 738 mmHg 27%
15:00 +36°C° 0 mm 5 m/s 738 mmHg 28%
16:00 +36°C° 0 mm 5 m/s 738 mmHg 28%
17:00 +34°C° 0 mm 5 m/s 738 mmHg 33%
18:00 +32°C° 0 mm 5 m/s 738 mmHg 37%
19:00 +29°C° 0 mm 5 m/s 738 mmHg 41%
20:00 +29°C° 0 mm 4 m/s 738 mmHg 41%
21:00 +29°C° 0 mm 4 m/s 738 mmHg 42%
22:00 +28°C° 0 mm 3 m/s 738 mmHg 42%
23:00 +28°C° 0 mm 3 m/s 738 mmHg 41%

Depois de amanhã, 31 Julho, Sábado

Tempo Temperatura Precipitação Vento Pressão Humidade
00:00 +28°C° 0 mm 3 m/s 738 mmHg 40%
01:00 +28°C° 0 mm 3 m/s 738 mmHg 40%
02:00 +28°C° 0 mm 2 m/s 737 mmHg 38%
03:00 +28°C° 0 mm 2 m/s 737 mmHg 37%
04:00 +28°C° 0 mm 1 m/s 737 mmHg 35%
05:00 +30°C° 0 mm 1 m/s 737 mmHg 32%
06:00 +32°C° 0 mm 2 m/s 737 mmHg 28%
07:00 +35°C° 0 mm 2 m/s 737 mmHg 25%
08:00 +35°C° 0 mm 2 m/s 738 mmHg 26%
09:00 +36°C° 0 mm 3 m/s 738 mmHg 27%
10:00 +36°C° 0 mm 3 m/s 738 mmHg 27%
11:00 +36°C° 0 mm 4 m/s 738 mmHg 28%
12:00 +37°C° 0 mm 4 m/s 737 mmHg 28%
13:00 +37°C° 0 mm 5 m/s 737 mmHg 29%
14:00 +36°C° 0 mm 5 m/s 737 mmHg 30%
15:00 +36°C° 0 mm 5 m/s 737 mmHg 32%
16:00 +35°C° 0 mm 6 m/s 737 mmHg 33%
17:00 +33°C° 0 mm 5 m/s 737 mmHg 38%
18:00 +30°C° 0 mm 4 m/s 737 mmHg 43%
19:00 +28°C° 0 mm 4 m/s 737 mmHg 47%
20:00 +28°C° 0 mm 3 m/s 737 mmHg 49%
21:00 +27°C° 0 mm 3 m/s 737 mmHg 51%
22:00 +27°C° 0 mm 3 m/s 737 mmHg 53%
23:00 +27°C° 0 mm 2 m/s 737 mmHg 52%

1 Agosto, Domingo

Tempo Temperatura Precipitação Vento Pressão Humidade
00:00 +27°C° 0 mm 2 m/s 737 mmHg 51%
01:00 +27°C° 0 mm 2 m/s 737 mmHg 50%
02:00 +27°C° 0 mm 2 m/s 737 mmHg 50%
03:00 +27°C° 0 mm 2 m/s 737 mmHg 50%
04:00 +27°C° 0 mm 3 m/s 737 mmHg 50%
05:00 +29°C° 0 mm 2 m/s 737 mmHg 46%
06:00 +30°C° 0 mm 2 m/s 738 mmHg 42%
07:00 +32°C° 0 mm 2 m/s 738 mmHg 38%
08:00 +34°C° 0 mm 2 m/s 738 mmHg 34%
09:00 +36°C° 0 mm 3 m/s 738 mmHg 30%
10:00 +37°C° 0 mm 3 m/s 738 mmHg 26%
11:00 +37°C° 0 mm 4 m/s 738 mmHg 26%
12:00 +37°C° 0 mm 4 m/s 738 mmHg 26%
13:00 +39°C° 0 mm 5 m/s 738 mmHg 26%
14:00 +37°C° 0 mm 5 m/s 737 mmHg 27%
15:00 +37°C° 0 mm 5 m/s 737 mmHg 28%
16:00 +36°C° 0 mm 6 m/s 737 mmHg 28%
17:00 +34°C° 0 mm 5 m/s 737 mmHg 34%
18:00 +32°C° 0 mm 4 m/s 737 mmHg 39%
19:00 +29°C° 0 mm 3 m/s 737 mmHg 45%
20:00 +29°C° 0 mm 3 m/s 738 mmHg 42%
21:00 +29°C° 0 mm 3 m/s 738 mmHg 40%
22:00 +29°C° 0 mm 2 m/s 738 mmHg 37%
23:00 +29°C° 0 mm 2 m/s 738 mmHg 38%

2 Agosto, Segunda-feira

Tempo Temperatura Precipitação Vento Pressão Humidade
00:00 +29°C° 0 mm 2 m/s 738 mmHg 38%
01:00 +29°C° 0 mm 2 m/s 738 mmHg 38%
02:00 +29°C° 0 mm 2 m/s 738 mmHg 37%
03:00 +29°C° 0 mm 2 m/s 738 mmHg 35%
04:00 +29°C° 0 mm 2 m/s 738 mmHg 33%
05:00 +31°C° 0 mm 2 m/s 738 mmHg 30%
06:00 +33°C° 0 mm 1 m/s 738 mmHg 27%
07:00 +36°C° 0 mm 1 m/s 739 mmHg 23%
08:00 +37°C° 0 mm 2 m/s 739 mmHg 23%
09:00 +38°C° 0 mm 2 m/s 739 mmHg 23%
10:00 +38°C° 0 mm 3 m/s 739 mmHg 23%
11:00 +40°C° 0 mm 4 m/s 739 mmHg 23%
12:00 +40°C° 0 mm 5 m/s 739 mmHg 23%
13:00 +40°C° 0 mm 5 m/s 739 mmHg 23%
14:00 +39°C° 0 mm 6 m/s 739 mmHg 27%
15:00 +36°C° 0 mm 6 m/s 739 mmHg 31%
16:00 +35°C° 0 mm 6 m/s 739 mmHg 35%
17:00 +34°C° 0 mm 6 m/s 739 mmHg 35%
18:00 +32°C° 0 mm 5 m/s 739 mmHg 35%
19:00 +30°C° 0 mm 5 m/s 739 mmHg 35%
20:00 +30°C° 0 mm 5 m/s 739 mmHg 38%
21:00 +29°C° 0 mm 5 m/s 739 mmHg 42%
22:00 +28°C° 0 mm 5 m/s 739 mmHg 45%
23:00 +28°C° 0 mm 5 m/s 739 mmHg 49%

3 Agosto, Terça-feira

Tempo Temperatura Precipitação Vento Pressão Humidade
00:00 +27°C° 0 mm 5 m/s 739 mmHg 53%
01:00 +27°C° 0 mm 5 m/s 739 mmHg 58%
02:00 +27°C° 0 mm 6 m/s 739 mmHg 64%
03:00 +26°C° 0 mm 6 m/s 739 mmHg 71%
04:00 +24°C° 0 mm 6 m/s 739 mmHg 77%
05:00 +26°C° 0 mm 6 m/s 739 mmHg 72%
06:00 +27°C° 0 mm 7 m/s 739 mmHg 67%
07:00 +28°C° 0 mm 7 m/s 740 mmHg 61%
08:00 +31°C° 0 mm 8 m/s 740 mmHg 52%
09:00 +32°C° 0 mm 8 m/s 740 mmHg 42%
10:00 +33°C° 0 mm 8 m/s 740 mmHg 33%
11:00 +34°C° 0 mm 8 m/s 740 mmHg 33%
12:00 +34°C° 0 mm 8 m/s 739 mmHg 34%
13:00 +34°C° 0 mm 9 m/s 739 mmHg 34%
14:00 +34°C° 0 mm 8 m/s 739 mmHg 36%
15:00 +34°C° 0 mm 8 m/s 739 mmHg 37%
16:00 +34°C° 0 mm 7 m/s 739 mmHg 38%
17:00 +32°C° 0 mm 7 m/s 739 mmHg 48%
18:00 +29°C° 0 mm 7 m/s 739 mmHg 58%
19:00 +27°C° 0 mm 7 m/s 739 mmHg 68%
20:00 +27°C° 0 mm 6 m/s 739 mmHg 67%
21:00 +27°C° 0 mm 6 m/s 739 mmHg 66%
22:00 +27°C° 0 mm 6 m/s 740 mmHg 64%
23:00 +27°C° 0 mm 5 m/s 740 mmHg 64%
Mostrar mais

Necessitamos do seu Consentimento

A Meteoprog e os seus Fornecedores de Serviços podem armazenar e aceder a dados pessoais como cookies, identificadores do dispositivo ou outras tecnologias semelhantes existentes no seu dispositivo e processar estes dados para personalizar conteúdos e anúncios, assim como funcionalidades nas redes sociais e análise de tráfego.

  • Armazenar e/ou aceder a informações no seu dispositivo

    Os cookies, identificadores do dispositivo ou outras informações podem ser armazenados ou acedidos no seu dispositivo, para os fins acima indicados.

  • Anúncios e conteúdos personalizados, medição de anúncios e conteúdos, dados sobre o público-alvo e desenvolvimento de produtos

    Os anúncios e os conteúdos podem ser personalizados com base num perfil. Podem ser adicionados dados adicionais para uma maior personalização dos anúncios e dos conteúdos. A eficácia dos anúncios e dos conteúdos pode ser medida. Podem ser obtidas informações sobre o público que visualizou os anúncios e os conteúdos. Estes dados podem ser usados para desenvolver ou melhorar sistemas, softwares ou a experiência do utilizador.

Ao clicar em "Eu concordo”, permitirá o uso de cookies, identificadores do dispositivo e web beacons mencionados ou outras tecnologias semelhantes. As configurações do navegador do seu dispositivo podem ser alteradas.

Para certos fins, podem ser invocados interesses legítimos ao invés de consentimento. Pode ler mais informação sobre este assunto na nossa Política de Privacidade e Cookies.